EHI
3 9 18 26 23 10 2 0 0 0 0 0 0 0 0 1 0 0 1 3 4 3 2 2 2 1 1 1 1 0 0 0 0 0 1 2 2 1 0 1 2 2 2 2 1 1 1 0 0
5 12 26 30 18 5 1 0 0 0 0 0 0 0 0 1 0 0 1 2 3 4 3 2 1 1 0 1 1 1 0 0 0 0 0 1 1 1 0 1 2 1 1 2 2 1 1 1 0
12 24 37 31 12 1 0 0 0 0 0 0 0 0 0 0 0 0 0 0 1 4 5 3 1 1 0 1 1 1 1 0 0 0 0 0 1 1 1 1 1 0 1 2 2 1 1 1 0
28 38 39 22 5 0 0 0 0 0 0 0 0 0 0 0 0 0 0 0 1 4 6 4 2 2 1 1 0 0 0 0 1 1 0 0 0 1 1 0 0 0 1 2 1 1 0 0 0
42 41 29 10 1 0 0 0 0 0 0 0 1 1 0 0 0 0 0 0 1 4 6 5 4 2 1 1 0 0 0 1 1 1 0 0 0 1 1 1 1 1 1 1 1 1 1 1 0
45 34 15 3 0 0 0 0 0 0 0 0 1 2 1 0 0 0 0 0 0 3 5 5 4 2 1 1 1 0 1 1 2 2 1 1 1 2 3 3 2 2 2 2 2 2 2 2 2
36 22 7 1 0 0 0 0 0 0 0 0 1 1 1 1 1 0 0 0 0 1 4 5 5 5 5 5 4 3 3 3 3 4 4 3 3 4 5 5 4 4 3 3 3 3 3 4 5
20 11 3 0 0 0 0 0 0 0 0 0 1 1 2 3 2 0 0 0 0 0 2 4 5 6 8 9 9 8 7 6 6 7 7 7 7 7 9 10 9 6 5 4 3 3 4 6 7
8 4 0 0 0 0 0 0 0 0 1 2 4 4 4 5 4 2 1 0 0 0 1 2 2 4 6 7 9 10 10 9 10 10 11 10 9 8 9 13 14 11 9 7 6 6 7 7 7
3 1 0 0 0 0 0 0 0 1 2 6 8 7 6 6 6 4 2 1 0 0 1 1 2 2 2 3 5 8 10 11 12 12 10 9 8 6 7 12 15 15 12 11 10 9 8 7 6
1 0 0 0 0 0 0 0 1 1 3 7 11 9 7 6 6 5 4 1 0 0 1 2 3 4 3 2 4 6 9 10 11 10 7 5 5 4 6 10 15 14 12 11 11 11 9 7 6
0 0 0 0 0 0 0 0 1 2 3 7 9 8 7 6 5 5 4 3 1 1 1 3 5 6 7 5 4 5 6 6 7 7 6 5 4 3 6 10 13 12 10 9 10 10 9 7 6
0 0 0 0 0 1 1 1 2 3 4 6 8 7 6 6 5 5 4 4 3 3 4 5 6 7 7 6 4 4 4 2 3 7 7 5 3 3 5 8 12 11 9 9 9 10 9 8 7
0 0 0 0 1 2 2 1 2 3 5 7 8 7 6 6 5 5 6 7 7 7 7 7 5 5 4 3 3 4 3 1 3 7 7 5 4 5 6 7 9 9 9 9 9 10 10 8 7
0 0 0 0 1 2 2 2 2 4 6 7 7 7 6 6 6 7 10 13 12 10 9 6 4 4 3 2 1 2 2 2 5 8 8 6 6 7 7 6 5 5 6 7 9 10 9 8 7
0 0 0 1 2 2 2 2 4 5 5 5 6 7 7 7 7 7 11 16 17 15 10 5 4 6 5 3 2 1 1 3 6 9 10 8 7 6 5 4 3 2 2 3 6 8 7 6 7
0 0 0 1 2 2 2 3 5 5 4 4 7 9 10 9 7 8 11 17 22 24 19 11 8 10 9 6 4 3 2 3 6 11 13 9 5 2 2 3 4 4 3 4 6 7 7 6 5
0 0 0 0 1 1 2 4 5 4 4 7 11 13 12 11 10 9 13 19 26 32 30 21 16 17 14 8 5 6 6 5 7 12 15 10 4 1 1 3 5 5 5 6 7 6 6 6 5
0 0 0 0 0 0 1 3 3 4 6 10 14 15 14 14 14 15 18 22 29 37 39 31 25 25 20 13 9 11 12 10 10 14 15 10 5 3 1 1 2 3 4 5 5 5 5 5 4
0 0 0 0 0 0 0 1 2 3 5 10 15 18 17 17 20 22 24 25 31 40 43 38 34 33 27 19 15 16 17 16 15 16 15 10 6 4 1 1 1 1 3 5 6 7 6 5 3
0 0 0 0 0 0 0 2 3 3 3 8 13 18 20 21 25 28 27 27 32 41 44 42 43 42 35 27 22 19 21 21 20 19 16 10 7 5 3 2 2 2 4 8 10 10 10 8 6
0 0 0 0 0 0 0 2 5 5 4 6 12 17 20 23 26 29 28 28 32 38 43 47 50 49 44 36 29 25 25 25 25 23 18 11 8 6 4 4 4 3 4 8 11 12 12 10 7
0 0 0 0 0 0 0 2 5 6 5 7 12 15 18 23 26 29 30 30 33 37 45 54 58 56 53 46 40 35 32 28 26 25 19 14 12 9 6 5 5 4 5 7 11 12 11 9 7
0 0 0 0 0 0 0 2 5 6 6 9 14 18 21 25 29 33 35 35 36 39 48 60 65 63 59 55 50 45 39 33 27 24 19 15 13 11 9 7 6 6 6 6 9 11 9 8 7
0 0 0 0 0 0 0 2 4 6 7 12 18 23 25 28 33 37 40 41 42 45 53 64 70 67 62 58 56 51 43 36 28 22 16 12 10 11 13 11 9 9 8 7 8 9 9 8 8
0 0 0 0 0 0 1 2 4 5 8 12 18 23 26 29 32 36 39 43 45 50 57 67 73 70 63 58 57 53 45 35 27 21 15 11 10 12 16 17 16 13 10 9 9 9 10 10 10
0 0 0 0 0 0 1 3 5 6 7 10 16 23 26 27 28 31 36 41 43 48 58 68 73 71 64 59 57 52 43 34 27 22 16 13 14 16 19 22 20 16 13 12 12 11 13 15 14
0 0 0 0 0 0 0 2 4 5 6 10 15 21 25 25 25 29 34 39 42 47 56 65 70 70 65 58 52 48 42 35 28 23 19 18 19 20 22 23 21 17 14 14 13 12 13 14 14
0 0 0 0 0 0 0 1 3 5 6 10 15 19 22 22 25 29 32 38 44 47 53 61 67 68 65 58 50 45 43 38 29 24 24 23 21 21 21 21 20 17 15 14 13 12 11 11 11
0 0 0 0 0 0 0 1 3 5 7 10 14 18 19 19 24 29 31 37 44 47 50 58 64 67 65 60 52 47 45 40 30 26 28 26 22 21 20 19 19 18 16 14 13 12 10 10 11
Wind_Speed
9 10 9 5 5 2 7 11 12 12 12 12 12 11 15 14 11 11 9 12 14 13 12 12 12 11 10 10 9 9 9 10 10 11 11 11 11 10 10 10 10 9 10 9 9 9 9 9 8
8 9 6 5 4 4 10 11 12 12 10 9 12 14 15 15 14 12 10 12 13 14 12 12 12 11 10 9 9 8 9 9 10 10 10 10 10 9 9 9 9 9 9 8 8 8 8 8 7
10 10 6 5 2 8 11 11 10 10 9 10 13 14 12 11 12 10 11 12 12 13 13 13 12 11 10 9 9 8 9 9 9 10 10 10 9 9 8 8 8 7 8 8 7 7 7 7 6
7 7 6 2 9 11 11 9 8 9 9 10 11 11 12 11 11 12 13 12 12 14 14 13 13 11 11 11 10 9 9 9 9 9 9 9 8 8 7 7 7 7 7 7 7 6 6 6 5
7 5 3 4 10 11 10 9 9 9 11 13 15 14 13 13 14 14 12 12 13 14 14 13 13 12 11 11 10 9 9 10 9 9 9 8 8 7 6 6 6 6 6 6 6 5 5 5 4
6 4 1 6 10 10 9 8 9 10 11 12 14 15 12 12 12 11 11 11 12 14 14 12 13 12 11 11 10 9 10 10 9 8 8 7 7 6 6 6 6 6 6 5 5 6 5 5 4
7 4 2 7 10 10 10 8 8 9 10 10 12 14 12 11 10 10 9 10 11 14 14 12 11 11 11 10 10 9 9 9 8 8 7 7 6 5 6 6 6 6 6 5 5 5 5 5 4
5 2 3 6 10 10 9 9 9 10 9 8 9 11 12 12 11 11 10 10 10 11 11 12 12 11 10 9 10 9 9 9 9 8 7 6 6 5 7 7 7 7 6 5 5 5 5 4 4
4 1 4 7 8 8 8 9 9 9 9 11 13 16 16 15 13 12 11 10 9 10 9 9 10 9 9 10 10 9 8 8 8 7 7 6 4 4 6 8 9 8 7 6 6 6 6 5 5
1 3 6 7 8 7 7 7 8 10 11 14 16 17 16 14 13 12 12 11 10 9 9 8 9 9 7 7 8 5 6 6 4 4 4 3 3 3 4 9 10 9 8 7 6 7 6 6 4
2 4 5 5 8 6 6 6 6 10 10 13 16 16 15 14 13 12 11 11 10 9 8 8 8 7 7 5 4 2 2 4 4 4 3 2 2 2 3 3 4 5 6 4 5 6 4 3 2
2 3 4 5 7 5 6 7 8 11 11 14 16 16 14 13 12 12 11 11 10 9 9 8 8 7 6 4 3 3 2 2 3 3 2 2 1 2 2 2 2 2 2 2 2 2 2 1 1
0 2 4 5 5 6 7 7 10 12 14 16 16 15 14 12 12 11 11 10 10 9 9 9 8 7 5 3 1 3 2 2 3 3 2 2 2 2 2 2 1 1 1 2 2 1 1 1 1
1 1 1 3 5 6 7 7 9 12 13 15 15 13 12 12 12 11 11 10 9 8 8 8 9 7 5 3 2 1 2 2 3 3 2 2 2 2 1 1 1 1 1 1 1 2 1 1 1
4 3 3 4 5 6 6 6 8 11 12 14 13 12 12 12 11 11 11 10 10 8 8 7 8 8 5 4 3 2 2 3 3 3 3 2 2 2 1 1 1 0 1 2 1 1 1 2 2
8 6 4 5 6 7 6 5 10 11 12 13 13 12 12 11 12 11 11 10 10 9 8 6 6 8 5 3 2 2 1 3 2 3 3 3 2 2 1 0 1 1 1 1 2 1 1 1 1
8 5 5 6 6 6 6 6 11 11 12 12 12 12 12 12 12 11 11 11 11 9 7 5 5 7 6 4 2 1 2 2 2 2 3 2 2 2 0 1 0 1 1 0 1 1 1 1 1
7 6 6 5 5 5 5 7 12 13 13 12 12 13 13 13 12 12 12 12 11 10 8 6 6 6 5 3 2 1 2 1 2 3 3 2 1 2 0 1 0 0 0 0 1 1 1 1 1
9 8 5 4 4 5 4 7 11 13 12 14 13 13 13 13 14 13 12 12 12 10 9 7 6 6 4 3 2 2 2 1 2 3 3 2 1 2 1 1 0 0 1 1 1 1 1 1 1
10 9 8 5 4 5 5 6 8 11 13 14 14 13 14 14 14 13 13 13 13 12 10 8 7 7 5 3 2 2 2 2 2 2 2 2 1 1 2 1 0 1 1 1 0 1 1 1 0
11 10 9 7 7 6 5 5 7 8 9 11 13 13 14 15 15 14 13 13 13 12 11 9 8 7 6 5 3 2 2 1 2 3 2 1 2 1 1 1 1 0 0 1 1 1 1 1 1
11 10 9 9 8 6 7 6 8 11 11 11 12 13 14 14 15 16 14 13 13 13 12 9 8 7 6 5 4 5 4 2 2 2 2 2 2 1 1 1 1 1 1 1 1 1 1 1 2
12 11 11 12 11 10 10 8 7 10 11 13 12 13 12 14 16 16 15 14 13 13 13 11 9 7 7 5 5 4 3 3 2 3 3 2 2 2 1 1 1 1 0 0 0 1 1 1 2
12 13 13 12 10 12 10 9 5 6 9 11 12 12 11 12 13 14 14 12 11 12 12 12 10 8 7 6 5 4 4 3 3 3 3 2 2 2 2 2 1 1 0 0 1 1 1 1 2
13 12 9 9 8 9 8 8 3 4 5 8 10 11 11 11 13 13 14 14 11 11 12 12 12 10 9 8 6 5 4 4 4 3 3 2 2 2 2 2 1 1 1 0 0 0 1 1 1
12 13 11 10 8 6 8 6 4 5 5 6 9 11 11 11 12 13 13 13 12 12 11 12 12 10 10 8 6 5 5 4 3 3 3 2 1 2 3 3 2 1 1 0 1 0 1 1 1
14 13 12 12 13 9 7 6 5 6 6 5 7 9 9 10 10 12 13 13 12 11 11 12 11 10 9 8 7 6 5 4 3 4 3 2 1 2 3 3 2 2 1 1 0 0 1 1 1
15 13 9 10 9 10 8 7 2 4 6 6 6 9 10 10 9 8 9 12 12 12 12 11 11 10 9 8 7 7 6 4 3 4 3 2 2 1 2 3 3 2 2 2 1 1 0 1 1
13 15 13 10 9 10 8 4 2 3 4 6 7 7 8 9 9 9 8 9 10 10 11 11 11 11 10 9 7 6 6 5 4 4 3 3 2 3 2 2 2 2 2 2 1 1 1 1 1
15 14 13 11 10 11 9 4 3 4 3 5 6 7 5 6 7 8 8 8 9 9 9 9 9 11 10 8 7 6 5 5 5 4 4 3 3 3 3 3 3 3 2 2 1 2 1 2 2
Wind_Direction
192 206 214 235 244 231 61 60 58 58 59 54 51 60 63 55 66 91 113 108 109 114 117 111 104 100 97 97 99 100 102 104 106 108 108 107 107 108 109 110 110 110 109 106 105 106 107 109 111
216 218 226 241 252 69 68 64 61 62 65 71 70 68 72 70 81 99 109 109 114 118 117 110 107 101 99 99 99 99 105 108 110 111 111 111 111 111 114 116 116 116 116 113 111 110 109 114 117
243 243 249 239 47 66 69 70 73 75 74 71 75 66 61 80 89 104 116 118 114 112 110 111 110 105 104 104 101 101 107 112 113 114 114 113 112 111 115 120 122 122 122 119 117 117 116 116 121
238 233 237 243 69 71 74 77 80 83 79 76 81 77 71 78 100 114 122 122 117 114 112 116 115 110 107 104 101 102 109 112 115 114 113 113 110 109 110 114 119 125 126 123 121 121 123 119 122
235 255 248 78 79 79 78 78 79 74 74 77 84 88 83 88 103 118 125 123 121 116 115 121 121 118 113 109 107 105 112 112 114 115 117 117 113 111 114 116 120 129 130 128 127 129 133 125 127
253 249 306 84 87 85 84 82 83 83 89 95 99 98 94 105 113 121 125 124 123 120 118 121 126 125 121 118 114 110 116 117 117 120 122 122 124 125 127 129 127 127 134 134 138 139 143 144 152
253 290 48 88 92 85 83 80 81 90 87 89 106 106 112 117 119 118 115 117 124 125 127 130 135 133 128 126 124 121 121 122 123 126 128 129 134 143 144 145 141 139 137 135 135 144 153 162 179
265 309 36 77 85 86 89 90 83 86 90 102 110 112 124 129 127 121 115 109 118 123 127 134 141 142 142 138 137 135 132 135 136 137 139 142 150 159 159 155 152 146 142 146 154 160 168 177 198
272 320 49 64 79 90 97 95 97 93 94 83 84 107 124 134 133 127 121 116 119 120 128 135 137 142 143 141 140 147 144 147 147 151 157 161 163 157 164 142 151 156 160 168 173 177 182 189 206
235 61 60 73 89 92 95 99 110 113 99 96 98 109 125 137 138 137 131 130 130 128 128 128 128 130 134 129 136 152 155 148 159 139 151 171 156 146 130 142 162 167 170 177 187 194 199 210 208
78 86 70 81 95 101 110 104 100 107 108 114 121 129 138 146 147 142 138 136 134 130 126 124 121 118 114 108 128 126 130 137 149 135 151 144 128 124 116 140 157 174 181 187 182 198 212 214 188
92 83 96 87 99 101 95 97 90 93 105 119 129 138 143 152 148 144 139 134 131 127 124 122 114 102 94 97 110 128 131 143 139 132 147 129 117 108 119 126 148 175 171 173 185 194 197 193 205
311 90 92 96 100 100 103 103 101 101 113 122 132 142 151 152 144 136 129 129 129 129 126 116 110 105 102 96 110 131 140 142 128 125 118 113 118 111 118 118 151 167 142 171 188 177 189 205 220
335 60 96 127 132 131 121 119 118 120 128 133 142 147 153 148 145 139 138 139 133 130 125 123 125 127 135 143 149 159 153 138 126 128 133 123 114 108 103 116 142 148 166 175 192 197 196 219 189
270 230 216 181 168 143 133 129 131 137 142 143 148 153 153 154 149 147 148 145 140 135 131 136 143 138 154 161 171 158 158 138 127 123 119 122 117 116 120 130 167 174 218 180 192 214 205 205 200
267 250 233 198 183 177 182 160 149 153 161 155 157 158 157 159 156 155 151 147 144 143 142 160 152 142 150 153 170 146 131 117 121 125 120 119 109 112 136 156 168 223 231 201 190 182 225 216 196
257 245 241 214 193 195 190 151 151 170 171 165 165 164 165 166 164 160 156 152 148 145 147 158 137 143 149 155 164 155 124 117 125 113 109 114 122 120 147 166 191 241 201 198 234 122 229 240 243
266 250 230 221 193 210 187 161 165 178 173 170 173 171 173 172 171 163 161 154 148 146 150 155 149 142 147 157 158 133 115 136 122 111 111 119 124 113 36 199 211 297 67 38 25 12 271 221 252
270 284 292 275 205 223 205 182 181 179 179 174 178 178 177 176 170 165 165 159 154 153 156 160 161 149 158 167 171 161 157 158 123 122 122 129 143 143 199 9 111 121 71 42 21 358 278 246 214
267 276 271 266 253 239 220 215 201 190 192 184 179 181 183 177 170 166 168 165 162 159 160 162 167 161 173 170 170 166 151 166 125 100 125 143 131 122 133 101 309 73 115 136 69 276 292 289 149
262 264 267 268 265 255 247 239 204 207 211 194 183 183 185 179 173 171 174 171 165 163 168 172 170 164 177 169 170 162 137 134 118 131 146 149 129 140 84 105 66 51 182 143 206 258 279 287 278
262 267 271 268 266 261 242 242 213 200 203 202 194 186 189 181 175 173 177 176 171 169 169 165 164 164 170 176 177 172 169 168 151 149 145 152 152 153 121 110 100 23 22 76 259 105 296 289 293
267 278 276 274 269 266 255 251 225 197 202 199 193 187 188 178 174 175 176 177 176 171 168 164 160 163 167 180 181 185 172 163 150 140 137 165 159 155 130 117 119 131 74 100 327 44 333 320 314
261 272 267 264 264 263 262 258 234 215 197 196 189 181 177 170 170 170 168 168 176 171 166 163 160 163 168 182 179 183 176 167 156 153 156 182 161 162 146 133 128 131 116 25 22 44 313 329 333
240 251 258 257 247 256 266 259 205 221 210 190 178 171 170 170 168 167 168 166 171 169 166 163 162 167 171 179 180 181 180 173 163 175 172 191 175 165 153 148 154 159 171 196 122 79 310 300 315
245 250 254 266 271 268 260 242 203 199 198 172 161 160 164 171 169 171 170 169 169 168 163 161 163 170 174 179 180 177 178 187 182 183 181 197 184 163 149 150 160 171 187 199 86 197 252 269 287
250 248 257 269 275 275 262 246 187 185 174 152 151 151 163 164 168 172 168 168 169 169 165 165 162 169 176 181 178 176 182 187 183 175 191 187 174 171 146 154 158 161 159 161 136 219 280 298 280
245 258 260 259 270 272 264 261 236 191 166 156 165 165 167 161 162 161 165 167 171 173 168 167 164 169 174 179 181 180 181 185 186 182 181 173 166 158 159 164 165 173 178 179 188 222 233 279 276
235 243 251 262 266 272 268 260 163 207 193 170 168 165 158 161 162 162 165 166 167 169 168 169 167 168 174 181 178 176 175 184 186 183 176 173 173 174 170 165 164 166 181 173 181 244 231 255 282
246 247 248 250 256 265 272 258 155 159 161 166 162 145 155 161 157 158 161 165 167 166 168 167 170 173 174 172 167 169 167 173 180 180 174 177 179 180 176 173 176 186 184 180 195 240 263 260 259